This is the latest recevied weather packets stored in our database for station/object K5NOC-12. If no packets are shown the sender has not sent any weather packets the latest 10 day(s).
| Time | Temp. | Humidity | Pressure | Rain* | Wind** | Luminosity | Snow |
|---|---|---|---|---|---|---|---|
| 1787745798 | 20.56° C | 77% | 1022.3 hPa | 0 mm | - | - | - |
| 1787744898 | 20.56° C | 77% | 1021.9 hPa | 0 mm | - | - | - |
| 1787743998 | 20.56° C | 78% | 1021.5 hPa | 0 mm | - | - | - |
| 1787743098 | 20.56° C | 78% | 1021.5 hPa | 0 mm | - | - | - |
| 1787742198 | 20.56° C | 79% | 1021.4 hPa | 0 mm | - | - | - |
| 1787741298 | 20° C | 81% | 1021.5 hPa | 0 mm | - | - | - |
| 1787740397 | 20° C | 82% | 1021.4 hPa | 0 mm | - | - | - |
| 1787739497 | 20° C | 80% | 1021.7 hPa | 0 mm | - | - | - |
| 1787738597 | 20.56° C | 80% | 1022.4 hPa | 0 mm | - | - | - |
| 1787737697 | 20.56° C | 79% | 1022.7 hPa | 0 mm | - | - | - |
| 1787736797 | 21.11° C | 75% | 1022.8 hPa | 0 mm | - | - | - |
| 1787735897 | 21.11° C | 77% | 1022.7 hPa | 0 mm | - | - | - |
| 1787734997 | 21.11° C | 77% | 1022.6 hPa | 0 mm | - | - | - |
| 1787734096 | 20.56° C | 77% | 1022.6 hPa | 0 mm | - | - | - |
| 1787733196 | 20.56° C | 76% | 1022.5 hPa | 0 mm | - | - | - |
| 1787732296 | 20.56° C | 76% | 1023.2 hPa | 0 mm | - | - | - |
| 1787731396 | 20.56° C | 78% | 1023.6 hPa | 0 mm | - | - | - |
| 1787730496 | 20° C | 79% | 1023.4 hPa | 0 mm | - | - | - |
| 1787729596 | 20° C | 79% | 1023.5 hPa | 0 mm | - | - | - |
| 1787728695 | 20.56° C | 78% | 1023.6 hPa | 0 mm | - | - | - |
| 1787727795 | 20.56° C | 77% | 1023.7 hPa | 0 mm | - | - | - |
| 1787726895 | 20.56° C | 77% | 1023.9 hPa | 0 mm | - | - | - |
| 1787725995 | 20° C | 76% | 1023.9 hPa | 0 mm | - | - | - |
| 1787725095 | 20° C | 78% | 1024.5 hPa | 0.25 mm | - | - | - |
| 1787724195 | 20° C | 80% | 1024.8 hPa | 0.51 mm | - | - | - |
* Rain latest hour (hover to see other rain measurements)
** Current wind speed in m/s (hover to see current wind gust speed)